Location: Newark
(49.1000°N, 0.4667°W)
Time: 10:53:54
(UTC+00:00)

BEESAT 3 - Pass Details

Date: 09 July 2020
Orbit: 482 x 522 km, 64.9° (Epoch: 10 August)

Event Time Altitude Azimuth Distance (km) Brightness Sun altitude
Rises 22:29:14 0° 272° (W) 2,649 ? -15.4°
Reaches altitude 10° 22:32:11 10° 295° (WNW) 1,766 ? -15.6°
Maximum altitude 22:34:36 16° 333° (NNW) 1,452 ? -15.8°
Drops below altitude 10° 22:37:02 10° 11° (N) 1,769 ? -15.9°
Sets 22:39:58 0° 34° (NE) 2,657 ? -16.1°
